TELSTAR 303

导读

TELSTAR 303是美国于1985年6月17日08:00发射的通信卫星,属于Telstar系列通信卫星的一员。Telstar系列开创了跨大西洋卫星通信的先河,首颗试验星早在1962年便实现了首次跨大西洋电视直播。作为第三代Telstar卫星,TELSTAR 303延续系列定位,主要承担电话、高速数据传输与广播电视信号转发任务,为区域通信服务提供支持,推动了商用卫星通信技术的发展与应用。

Basic Information
目录编号:
15826
目录名称:
TELSTAR 303
国际标识:
1985-048D
轨道中心:
EARTH
卫星名称:
TELSTAR 303
卫星全名:
--
卫星状态:
在轨 (已飞行14975 天)
发射日期:
1985-06-17 UTC
国别 :
美国 (US)
星等 :
--
Orbit Information
数据来源 国际轨道数据 AOE轨道数据
星历时间 2026-06-16T22:55:02+0800
18小时前
查看轨道信息
2026-06-16T10:00:00+0800
1天前
查看轨道信息
半长轴 42276.842km 42276.814km
偏心率 0.0002399 0.0002281
轨道倾角 14.200° 14.200°
近地点辐角 255.660° 262.067°
升交点赤经 346.285° 346.293°
平近点角 287.135° 87.205°
近地点 35888.562km 35889.033km
远地点 35908.848km 35908.321km
周期 1441.828分钟 1441.827分钟
每日圈数 0.998732 0.998733
Detailed Information
使用方式:
暂无
2D Orbit Map
3D Orbit Map
Orbit Altitude Analysis Chart
Orbit Inclination Analysis Chart
Orbit Comprehensive Analysis Chart
View Comprehensive Chart